{"data":{"norad_id":63901,"intl_designator":"2025-095M","name":"STARLINK-34125","alt_names":[],"object_type":"PAYLOAD","status":"ACTIVE","operator":null,"country":"US","launch_date":"2025-05-10","launch_site_code":"AFETR","launch_vehicle":null,"mission":null,"orbit_class":"UNKNOWN","rcs_meters":null,"size_class":null,"mass_kg":null,"dimensions":null,"purposes":["comms"],"wikipedia_slug":null,"has_3d_model":false,"image_url":null,"decayed_at":null,"tle_current":{"epoch":"2026-05-25T03:58:12.279360Z","epoch_age_seconds":50981,"freshness":"FRESH","line1":"1 63901U 25095M   26145.16541990  .00029717  00000+0  10842-2 0  9995","line2":"2 63901  43.0006 104.3319 0000780 251.7303 108.3464 15.27607516 59472","mean_motion":15.27607516,"eccentricity":7.8e-5,"inclination_deg":43.0006,"raan_deg":104.3319,"arg_perigee_deg":251.7303,"mean_anomaly_deg":108.3464,"bstar":0.0010842,"rev_number":5947,"period_min":94.265050735715,"perigee_km":482.43153838463,"apogee_km":483.50187056253,"semimajor_km":6861.1037044736,"source":"CELESTRAK","updated_at":"2026-05-25T13:38:20.177162Z"}}}